Regional Weather Roundup
Issued by NWS Wakefield, VA

Home | Current Version | Previous Version | Graphics & Text | Print | Product List | Glossary On
Versions: 1 2 3 4 5 6 7 8 9 10 11 12 13 14 15 16 17 18 19 20 21 22 23 24 25 26 27
000
ASUS41 KAKQ 240115
RWRAKQ

REGIONAL WEATHER ROUNDUP
NATIONAL WEATHER SERVICE WAKEFIELD VA
900 PM EDT THU MAR 23 2017

Note: "fair" indicates few or no clouds below 12,000 feet with no
significant weather and/or obstructions to visibility. * = Denotes
station may not report precipitation (e.g., rain,snow,etc.),
thunder or fog.

VAZ042-051-052>054-056-240200-
NORTHERN VIRGINIA

CITY           SKY/WX    TMP DP  RH WIND       PRES   REMARKS
WASH NATIONAL  CLEAR     43  14  31 SE7       30.53S
DULLES         CLEAR     40  10  29 SE7       30.50R
FORT BELVOIR   CLEAR     41  16  35 S5        30.52R
QUANTICO       CLEAR     42  27  55 S8        30.54S
FREDERICKSBRG* CLEAR     42  22  46 E6        30.52R
STAFFORD*      CLEAR     38  18  43 SE3       30.56R
WARRENTON      CLEAR     42   7  24 SE5       30.49S
CULPEPER*      CLEAR     37  19  48 CALM      30.51R
MANASSAS*      CLEAR     39  16  39 S7        30.51R
LEESBURG*      CLEAR     45  18  33 S7        30.50R
WINCHESTER     CLEAR     37  14  38 SE5       30.45R
FRONT ROYAL*     N/A    N/A N/A N/A MISG        N/A
LURAY*         CLEAR     41  19  42 SW5       30.44S
$$

VAZ048-049-060>072-079>083-240200-
CENTRAL AND SOUTH CENTRAL VIRGINIA

CITY           SKY/WX    TMP DP  RH WIND       PRES   REMARKS
RICHMOND       CLEAR     41  20  43 SE10      30.54R
CHESTERFIELD*  FAIR      39  10  30 SE6       30.55R
PETERSBURG*    CLEAR     31  22  69 CALM      30.54R
HANOVER        CLEAR     35  20  54 CALM      30.54R
TAPPAHANNOCK*  CLEAR     37   3  24 E5        30.55S
QUINTON*       FAIR      41  20  42 SE5       30.55R
CHARLOTTSVILLE CLEAR     44  15  31 S6        30.48S
GORDONSVILLE*  CLEAR     38  21  50 CALM      30.49R
ORANGE*        CLEAR     39  18  41 CALM      30.50S
LOUISA*        CLEAR     36  21  55 SE3       30.49S
BUMPASS*       FAIR      39  15  37 CALM      30.51S
FARMVILLE*     CLEAR     43  20  40 CALM      30.50R
CREWE*         FAIR      36  24  61 CALM      30.51S
FORT PICKETT*  FAIR      39  12  34 SE3       30.52R
CHASE CITY*    FAIR      37  22  54 SE3       30.51R
CLARKSVILLE*   FAIR      45  23  42 E6        30.50S
SOUTH HILL*    CLEAR     38  25  59 CALM      30.58R
LAWRENCEVILLE* FAIR      39  22  50 CALM      30.53R
EMPORIA*       CLEAR     32  27  80 CALM      30.56R
$$

VAZ088>098-240200-
SOUTHEAST VIRGINIA

CITY           SKY/WX    TMP DP  RH WIND       PRES   REMARKS
NORFOLK        CLEAR     36  22  56 SE6       30.58S
VIRGINIA BEACH CLEAR     34  21  59 SE5       30.58S
NORFOLK NAVAL  CLEAR     37  20  50 SE6       30.59S
WEST POINT*    CLEAR     35  17  49 E5        30.58S
SALUDA*        FAIR      35  17  49 SE6       30.57R
NEWPORT NEWS   CLEAR     34  22  61 E6        30.57S
LANGLEY AFB    CLEAR     38  25  59 SE8       30.57S
FORT EUSTIS    CLEAR     38  17  42 SE7       30.54S
WILLIAMSBURG*  CLEAR     37  23  56 CALM      30.57S
HR EXEC AP*    FAIR      36  21  55 SE7       30.58R
FRANKLIN*      CLEAR     39  16  40 SE3       30.58R
US460-WAKEFLD  CLEAR     37  19  48 CALM      30.56R
$$

VAZ020-022-025-037-045-240200-
WEST CENTRAL AND SOUTHWEST VIRGINIA

CITY           SKY/WX    TMP DP  RH WIND       PRES   REMARKS
STAUNTON*      CLEAR     41  16  35 S6        30.47R
WAYNESBORO*    CLEAR     40  16  38 S3        30.45R
HOT SPRINGS VA CLEAR     34   9  35 S7        30.39S
LYNCHBURG      CLEAR     40  19  43 CALM      30.49R
DANVILLE       CLEAR     45  22  40 SE3       30.49R
SOUTH BOSTON*  FAIR      43  18  36 CALM      30.51R
MARTINSVILLE   CLEAR     40  21  46 CALM      30.49R
ROANOKE        CLEAR     46  17  31 SE8       30.48R
BLACKSBURG     CLEAR     44  20  38 SE3       30.46R
DUBLIN*        CLEAR     46  19  34 CALM      30.44R
MARION*        CLEAR     47  21  35 E5        30.42R
HILLSVILLE*    CLEAR     42  22  44 CALM      30.41S
RICHLANDS*     FAIR      50  25  36 CALM      30.35R
WISE*          CLEAR     54  28  37 CALM      30.35R
ABINGDON*      CLEAR     56  24  28 S3        30.35R
$$

MDZ021>025-VAZ099-100-240200-
SOUTHERN MARYLAND AND THE DELMARVA PENINSULA

CITY           SKY/WX    TMP DP  RH WIND       PRES   REMARKS
PATUXENT RIVER CLEAR     36  17  46 S7        30.55S
BAY BRIDGE APT CLEAR     39  21  48 SE6       30.54S
LEONARDTOWN    CLEAR     36  16  44 SE5       30.56S
DOVER          CLEAR     33  24  69 SE7       30.55R
GEORGETOWN     CLEAR     33  21  61 SE5       30.57R
EASTON         NOT AVBL
CAMBRIDGE      CLEAR     34  19  55 SE5       30.56R
SALISBURY      CLEAR     32  24  72 SE3       30.57R
OCEAN CITY     CLEAR     36  25  64 VRB6      30.59R
WALLOPS ISLAND CLEAR     32  25  75 S6        30.59R
ACCOMACK*      CLEAR     33  26  72 S3        30.59R
$$

NCZ012>017-030>032-240200-
NORTH CENTRAL AND EASTERN NORTH CAROLINA

CITY           SKY/WX    TMP DP  RH WIND       PRES   REMARKS
ROANOKE RAPIDS FAIR      36  27  69 CALM      30.54R
RALEIGH        PTCLDY    47  20  34 SE6       30.52R
ELIZABETH CITY CLEAR     36  25  64 E7        30.59S
AHOSKIE*         N/A     39  27  61 SE3       30.57R
EDENTON*       CLEAR     39  28  63 E7        30.58S
CURRITUCK*     CLEAR     36  25  65 E3        30.60S
KILL DEVIL HLS NOT AVBL
MANTEO         CLEAR     36  26  67 E3        30.61R
CAPE HATTERAS  CLEAR     40  30  67 NE6       30.59R
TARBORO*       NOT AVBL
GOLDSBORO      CLEAR     44  27  52 E3        30.52S
WASHINGTON     CLEAR     40  26  57 E6        30.56S
GREENVILLE     CLEAR     45  27  49 SE5       30.55R
NEW BERN       CLEAR     42  34  73 SE10      30.58R
WILMINGTON     CLEAR     47  30  51 E5        30.55R
$$

VAZ048-240200-
ELSEWHERE

CITY           SKY/WX    TMP DP  RH WIND       PRES   REMARKS
HARRISBURG PA  PTCLDY    38  24  57 CALM      30.49S
BALTIMORE      CLEAR     37  19  48 SE6       30.52S
ANNAPOLIS      CLEAR     41  24  51 S7        30.53F
ANDREWS AFB    CLEAR     37  18  44 SE7       30.50F
PHILADELPHIA   CLEAR     40  13  33 S6        30.55R
HENDERSON NC   CLEAR     43  17  36 SE5       30.52R
GREENSBORO     CLEAR     47  21  35 S8        30.46S
ROCKY MOUNT    CLEAR     39  30  70 CALM      30.55R
$$

VAZ100-240200-
MARINE

STATION/POSITION TIME  TEMP    WIND        PRES    WAVE   SWELL
                       AIR SEA DIR/SP/G            HT/PER HT/PER
                 (UTC) (F)     (DEG/KT/KT) (MB)    (FT/S) (FT/S)
CAPE MAY NJ      0030   36 43  190/  5/  7 1034.6F
LEWES DE         0036   35 43  190/  4/  5 1035.0R
OCEAN-CITY-INLET 0030   37 43  200/  8/ 10 1035.9R
WACHAPREAGUE VA  0036   37 48  220/  5/  9 1035.4R
THOMAS POINT MD  0100   42 44  180/ 16/ 18   N/A
GOOSES REEF MD   0050   41     170/ 14/ 16 1034.7S
COVE POINT MD    0030   40     190/ 13/ 14 1035.1F
SOLOMONS ISLAND  0030   39 46  170/  9/ 12   N/A
BISHOPS HEAD MD  0030   39 47  180/ 10/ 11 1035.1R
PINEY POINT MD   0030          170/ 12/ 13   N/A
POTOMAC MD       0050   40     190/ 10/ 12 1034.2F
CAMBRIDGE MD     0030   39 44  170/  4/  6 1034.0S
LEWISETTA VA     0036   38 48  180/  6/  7 1034.6F
RAPPAHANNOCK LGT 0030          180/  7/  9 1036.2R
STINGRAY PT      0050   39     180/ 10/ 12 1035.2F
YORK RVR RNG VA  0036   40     140/  9/ 10 1034.6S
YORKTOWN VA      0036   39 49  140/  5/  7 1034.9R
JAMESTOWN VA     0050   42     110/  8/ 12   N/A
DOMINION TERM VA 0030   41     130/ 11/ 12 1035.1F
KIPTOPEKE VA     0030      47  130/  4/  6   N/A
CHES BAY BRIDGE  0036   38 47  140/  7/ 11 1035.4F
CAPE HENRY VA    0030   36     140/  6/  8   N/A
WILLOUBY STN VA  0030   39     140/ 10/ 12 1036.0S
S CRANEY ISL VA  0030   40     130/ 11/ 12 1035.0F
CAPE HENRY BUOY  0042      46                N/A     3/ 7
CAPE CHARLES BUO 0051      45                N/A     2/11
OFFSHORE WE BUOY 0051      45                N/A     4/ 7
64NM E OF VA BCH 0050   40 49   60/  6/  8 1035.7R   4/ 7   5/ 7
DUCK PIER NC     0030   38 48   60/  8/  9 1035.5R
44100 DUCK FRF   0035      47                N/A     4/ 6   2/11
44056 DUCK FRF   0030      47                N/A     4/ 7
OREGON INLET NC  0030   39 49   50/  6/  8 1035.7R
HATTERAS NC      0036   41 52   40/  8/ 13 1035.2R
DIAMOND SHLS NC  0050   49 73   40/ 10/ 14 1035.4R   8/11   8/11
CAPE LOOKOUT NC  0000   46      30/ 13/ 14 1034.6F
$$




USA.gov is the U.S. government's official web portal to all federal, state and local government web resources and services.